{"data":{"norad_id":64195,"epoch":"2026-05-25T01:57:40.880160Z","epoch_age_seconds":61263,"freshness":"FRESH","line1":"1 64195U 25113AB  26145.08172315  .00019144  00000+0  65699-3 0  9998","line2":"2 64195  53.1576  96.1129 0001162  89.4062 270.7072 15.30190829 56724","mean_motion":15.30190829,"eccentricity":0.0001162,"inclination_deg":53.1576,"raan_deg":96.1129,"arg_perigee_deg":89.4062,"mean_anomaly_deg":270.7072,"bstar":0.00065699,"rev_number":5672,"period_min":94.105909714611,"perigee_km":474.44608981662,"apogee_km":476.03881520138,"semimajor_km":6853.379452509,"source":"CELESTRAK","updated_at":"2026-05-25T13:38:20.315411Z"}}